Location: Essen
(51.4609°N, 7.0127°E)
Time: 05:04:29
(UTC+01:00)

Envisat - Visible Passes

Search period start: 25 November 2017 00:00
Search period end: 05 December 2017 00:00
Orbit: 764 x 766 km, 98.2° (Epoch: 24 November)

Date Brightness Start Highest point End Pass type
(mag) Time Alt. Az. Time Alt. Az. Time Alt. Az.
25 Nov 4.8 19:27:55 19° N 19:27:55 19° N 19:29:23 10° N visible
25 Nov 5.9 21:08:07 10° NNW 21:08:07 10° NNW 21:08:13 10° NNW visible
26 Nov 6.3 07:26:33 10° E 07:26:50 10° E 07:27:07 10° E visible
26 Nov 4.8 18:50:50 16° NNE 18:50:50 16° NNE 18:52:13 10° N visible
26 Nov 5.5 20:31:03 15° NNW 20:31:03 15° NNW 20:31:50 10° NNW visible
27 Nov 4.9 18:13:45 12° NNE 18:13:45 12° NNE 18:14:35 10° NNE visible
27 Nov 5.1 19:53:58 17° N 19:53:58 17° N 19:55:08 10° N visible
28 Nov 4.9 19:16:53 17° N 19:16:53 17° N 19:18:10 10° N visible
28 Nov 5.8 20:57:05 11° NNW 20:57:05 11° NNW 20:57:15 10° NNW visible
29 Nov 4.9 18:39:47 15° NNE 18:39:47 15° NNE 18:40:54 10° N visible
29 Nov 5.4 20:20:00 14° NNW 20:20:00 14° NNW 20:20:46 10° NNW visible
30 Nov 5.0 18:02:42 11° NNE 18:02:42 11° NNE 18:02:57 10° NNE visible
30 Nov 5.1 19:42:55 16° N 19:42:55 16° N 19:43:58 10° N visible
01 Dec 4.9 19:05:48 16° N 19:05:48 16° N 19:06:55 10° N visible
01 Dec 5.8 20:46:01 11° NNW 20:46:01 11° NNW 20:46:14 10° NNW visible
02 Dec 5.0 18:28:42 13° NNE 18:28:42 13° NNE 18:29:32 10° NNE visible
02 Dec 5.4 20:08:55 14° NNW 20:08:55 14° NNW 20:09:38 10° NNW visible
03 Dec 5.1 19:31:48 16° N 19:31:48 16° N 19:32:47 10° N visible
04 Dec 6.1 07:28:50 10° ENE 07:30:16 11° E 07:31:42 10° E visible
04 Dec 5.0 18:54:42 14° N 18:54:42 14° N 18:55:39 10° N visible
04 Dec 5.7 20:34:54 11° NNW 20:34:54 11° NNW 20:35:11 10° NNW visible
